Regional Weather Roundup
Issued by NWS Burlington, VT

Home | Current Version | Previous Version | Text Only | Print | Product List | Glossary On
Versions: 1 2 3 4 5 6 7 8 9 10 11 12 13 14 15 16 17 18 19 20 21 22 23 24 25 26 27 28 29 30 31 32 33 34 35 36 37 38 39 40 41 42 43 44 45 46 47 48 49 50
958
ASUS41 KBTV 081410
RWRBTV
VERMONT REGIONAL WEATHER ROUNDUP
NATIONAL WEATHER SERVICE BURLINGTON VT
900 AM EST THU DEC 08 2016

NOTE: "FAIR" INDICATES FEW OR NO CLOUDS BELOW 12,000 FEET WITH NO
SIGNIFICANT WEATHER AND/OR OBSTRUCTIONS TO VISIBILITY.

* THESE REPORTS ARE NOT UNDER NWS QUALITY CONTROL AND/OR DO NOT
  REPORT WEATHER SUCH AS PRECIPITATION AND FOG.

VTZ001>019-081500-
_____VERMONT_____


CITY           SKY/WX    TMP DP  RH WIND       PRES   REMARKS
BURLINGTON     CLOUDY    36  27  69 S14       29.82F WCI  27
MONTPELIER     MOSUNNY   33  26  75 W6        29.84S WCI  28
MORRISVILLE    PTSUNNY   33  27  78 CALM      29.81F
ST. JOHNSBURY*   N/A     30  28  92 MISG      29.81F
LYNDONVILLE*   PTSUNNY  N/A N/A N/A CALM      29.81S HAZE
MIDDLEBURY*    FAIR      35  27  72 S10       29.85F WCI  28
RUTLAND*       CLOUDY    35  26  69 SE7       29.86S WCI  29
SPRINGFIELD    FOG       29  27  92 CALM      29.88S VSB 1/4
HIGHGATE*      CLOUDY    34  29  82 SW3       29.82R
NEWPORT*       PTSUNNY   31  27  85 S8        29.80S WCI  23
BENNINGTON     MOSUNNY   28  26  92 CALM      29.88F FOG
SUTTON*          N/A     28 N/A N/A MISG        N/A

_____LAKE CHAMPLAIN_____


CITY           SKY/WX    TMP DP  RH WIND       PRES   REMARKS
BURTON ISLAND*   N/A     37  32  81 SE16        N/A  WCI  28
COLCHESTER RF*   N/A     39  32  75 S18         N/A  WCI  30
DIAMOND ISL*     N/A     36  32  87 SE14        N/A  WCI  27

$$

NYZ007-026>031-035-052-083-087-081500-
_____NORTHERN NEW YORK_____


CITY           SKY/WX    TMP DP  RH WIND       PRES   REMARKS
PLATTSBURGH    CLOUDY    35  30  82 SW5       29.81F WCI  31
SARANAC LAKE   LGT SNOW  29  26  89 SW8       29.76S VSB 1   WCI  21
MASSENA        PTSUNNY   34  27  75 SW12      29.82S WCI  25
OGDENSBURG*    SUNNY     36  27  69 W7        29.82S WCI  30
POTSDAM*       MOSUNNY   34  30  86 SW10      29.81S WCI  26
WATERTOWN      CLOUDY    33  31  92 W5        29.85S WCI  29
FT DRUM        LGT SNOW  32  28  86 W8        29.82R FOG     WCI  25
ALBANY         PTSUNNY   31  30  96 CALM      29.91F FOG
GLENS FALLS    PTSUNNY   31  28  89 CALM      29.90S

$$
NHZ002-005-011-081500-
_____NEW HAMPSHIRE_____


CITY           SKY/WX    TMP DP  RH WIND       PRES   REMARKS
LEBANON        PTSUNNY   27  26  96 CALM      29.86S FOG
KEENE          MOSUNNY   28  28 100 S3        29.90F FOG
MT WASHINGTON  FOG       12  12 100 W36         N/A  VSB 0   WCI -11
PLYMOUTH       FOG       27  27  99 CALM      29.87S VSB 1/4
WHITEFIELD     MOSUNNY   25  22  88 CALM      29.81F

$$

_____REGIONAL QUEBEC LOCATIONS_____


CITY           SKY/WX    TMP DP  RH WIND       PRES   REMARKS
MONTREAL       PTSUNNY   36  27  69 SW16G24   29.78S WCI  26
QUEBEC CITY    CLOUDY    34  27  75 SW2       29.74F
SHERBROOKE     MOSUNNY   32  27  80 SW3       29.77S

_____REGIONAL ONTARIO LOCATIONS_____


CITY           SKY/WX    TMP DP  RH WIND       PRES   REMARKS
OTTAWA         FLURRIES  32  25  74 SW14      29.78S WCI  22

______KEY______
VSB  - VISIBILITY IN MILES
WCI  - WIND CHILL INDEX
HX   - HEAT INDEX
$$
NNNN




USA.gov is the U.S. government's official web portal to all federal, state and local government web resources and services.